Back to catalog

STARLINK-30204

AliveCommunicationsVLEO
NORAD 57472·PAYLOAD·🇺🇸 United States

Launched Jul 28, 2023 from Cape Canaveral Space Force Station

Loading…

Next Passes (next 24 hours)

TLE

FreshSource: CelesTrak SupGP

Epoch: Sep 14, 2026, 22:44 UTC

1 57472C 23107R   26257.94770833 -.00025099  00000+0 -90891-3 0  2574
2 57472  43.0029 347.2680 0001404 276.6265  14.9679 15.27597530    19

Track STARLINK-30204 in real time with AllMySat

Download on the App Store